Location: Unspecified
(58.7730°N, 5.8460°E)
Time: 09:49:18
(UTC+02:00)

Okean 3 - Visible Passes

Search period start: 04 September 2015 00:00
Search period end: 14 September 2015 00:00
Orbit: 581 x 604 km, 82.5° (Epoch: 02 September)

Date Brightness Start Highest point End Pass type
(mag) Time Alt. Az. Time Alt. Az. Time Alt. Az.
04 Sep 4.5 05:27:03 10° S 05:31:13 49° E 05:35:26 10° NNE visible
05 Sep 6.5 04:01:54 10° ESE 04:03:36 12° E 04:05:27 10° NE visible
05 Sep 3.9 05:35:52 10° S 05:40:09 67° E 05:44:29 10° NNE visible
06 Sep 6.2 04:09:43 10° ESE 04:12:23 16° E 04:15:09 10° NE visible
06 Sep 3.6 05:44:48 10° SSW 05:49:08 90° W 05:53:31 10° NNE visible
07 Sep 5.9 04:17:56 10° SE 04:21:12 22° E 04:24:33 10° NE visible
07 Sep 3.5 05:53:51 10° SSW 05:58:10 67° WNW 06:02:30 10° N visible
08 Sep 5.4 04:26:21 10° SSE 04:30:03 29° E 04:33:49 10° NNE visible
08 Sep 3.8 06:02:59 10° SSW 06:07:13 50° WNW 06:11:28 10° N visible
09 Sep 4.9 04:34:56 10° SSE 04:38:56 38° E 04:42:59 10° NNE visible
10 Sep 4.3 04:43:39 10° S 04:47:50 52° E 04:52:05 10° NNE visible
11 Sep 6.3 03:18:17 10° ESE 03:20:11 13° E 03:22:15 10° NE visible
11 Sep 3.7 04:53:01 13° S 04:56:48 71° E 05:01:07 10° NNE visible
12 Sep 6.0 03:26:12 10° ESE 03:28:58 17° E 03:31:52 10° NE visible
12 Sep 3.5 05:02:23 17° SSW 05:05:46 86° WNW 05:10:08 10° NNE visible
13 Sep 5.6 03:35:07 13° SE 03:37:47 23° E 03:41:13 10° NE visible
13 Sep 3.5 05:11:44 19° SSW 05:14:47 64° WNW 05:19:06 10° N visible
